Regional Weather Roundup
Issued by NWS Northern Indiana

Home | Current Version | Previous Version | Text Only | Print | Product List | Glossary Off
Versions: 1 2 3 4 5 6 7 8 9 10 11 12 13 14 15 16 17 18 19 20 21 22 23 24 25 26 27 28 29 30 31 32 33 34 35 36 37 38 39 40 41 42 43 44 45 46 47 48 49 50

000
ASUS43 KIWX 271200
RWRIWX

KIWX WEATHER ROUNDUP
NATIONAL WEATHER SERVICE NORTHERN INDIANA
800 AM EDT WED AUG 27 2014

NOTE: "FAIR" INDICATES FEW OR NO CLOUDS BELOW 12,000 FEET WITH NO
SIGNIFICANT WEATHER AND/OR OBSTRUCTIONS TO VISIBILITY.

* THESE STATIONS ARE NOT UNDER NWS QUALITY CONTROL. THEY ALSO MAY NOT
  REPORT WEATHER SUCH AS PRECIPITATION OR FOG.

INZ001>027-271300-
NORTHERN INDIANA

CITY           SKY/WX    TMP DP  RH WIND       PRES   REMARKS
GARY*          PTCLDY    68  66  94 CALM      30.14R
VALPARAISO     PTCLDY    66  61  84 CALM      30.14R
6HR MIN TEMP:  64; 6HR MAX TEMP:  67;

KNOX*          CLEAR     65  63  93 N3        30.12S
6HR MIN TEMP:  41; 6HR MAX TEMP:  88;

SOUTH BEND     PTCLDY    65  62  90 CALM      30.13S
6HR MIN TEMP:  64; 6HR MAX TEMP:  67;

ELKHART*       CLEAR     64  63  94 CALM      30.14R
GOSHEN         MOCLDY    67  63  87 N5        30.13R
6HR MIN TEMP:  66; 6HR MAX TEMP:  73;

MONTICELLO*    HVY RAIN  69  69 100 NE5       30.11R
6HR MIN TEMP:  67; 6HR MAX TEMP:  70; 6HR PCP:  0.02;

WARSAW*        CLOUDY    64  64 100 CALM      30.12R
ANGOLA*        PTCLDY    64  61  88 N3        30.12S
FORT WAYNE     CLOUDY    71  68  90 N5        30.12R FOG
6HR MIN TEMP:  69; 6HR MAX TEMP:  71; 6HR PCP:  0.09;


$$
INZ028>050-271300-
CENTRAL INDIANA

CITY           SKY/WX    TMP DP  RH WIND       PRES   REMARKS
LAFAYETTE      MOCLDY    68  68 100 NE6       30.11R FOG
6HR MIN TEMP:  65; 6HR MAX TEMP:  68;

KOKOMO*        CLOUDY    70  66  88 NE7       30.11S VSB<1/4
6HR MIN TEMP:  66; 6HR MAX TEMP:  70;

MUNCIE*        CLEAR     68  66  93 CALM      30.11R FOG
6HR MIN TEMP:  68; 6HR MAX TEMP:  72;

INDIANAPOLIS   MOCLDY    71  69  93 CALM      30.09R
6HR MIN TEMP:  70; 6HR MAX TEMP:  73;


$$
MIZ043>046-050>051-056>058-064>065-071>073-077>080-271300-
SOUTHWEST LOWER MICHIGAN

CITY           SKY/WX    TMP DP  RH WIND       PRES   REMARKS
BATTLE CREEK   MOCLDY    62  58  86 N5        30.14S
6HR MIN TEMP:  61; 6HR MAX TEMP:  65;

BENTON HARBOR  MOCLDY    60  59  96 CALM      30.14R
6HR MIN TEMP:  57; 6HR MAX TEMP:  61;

COLDWATER*     CLOUDY    64  63  96 N6        30.13S
6HR MIN TEMP:  62; 6HR MAX TEMP:  70;

HILLSDALE*     CLOUDY    63  63 100 CALM      30.13S FOG
6HR MIN TEMP:  60; 6HR MAX TEMP:  70;

HOLLAND        CLOUDY    63  59  87 CALM      30.16R
6HR MIN TEMP:  58; 6HR MAX TEMP:  63;

GRAND RAPIDS   MOCLDY    62  62 100 N5        30.15R
6HR MIN TEMP:  59; 6HR MAX TEMP:  64;

KALAMAZOO      PTCLDY    61  59  93 N3        30.14S
6HR MIN TEMP:  60; 6HR MAX TEMP:  65;

STURGIS*       PTCLDY    63  61  94 N3        30.13R
THREE RIVERS*  FAIR      64  61  91 NW6       30.14R
6HR MIN TEMP:  62; 6HR MAX TEMP:  67;


$$
OHZ001>008-015>018-024>025-271300-
NORTHWEST OHIO

CITY           SKY/WX    TMP DP  RH WIND       PRES   REMARKS
DEFIANCE       MOSUNNY   69  66  90 N3        30.11S
6HR MIN TEMP:  68; 6HR MAX TEMP:  70;

FINDLAY        FOG       70  68  93 NW3       30.10R VSB 1/4
6HR MIN TEMP:  68; 6HR MAX TEMP:  71;

TOLEDO EXPRESS CLOUDY    67  64  90 N7        30.11R
6HR MIN TEMP:  67; 6HR MAX TEMP:  71;

TOLEDO METCALF CLOUDY    71  66  84 NW5       30.11R
6HR MIN TEMP:  69; 6HR MAX TEMP:  73;

LIMA           PTSUNNY   71  69  93 NE3       30.11S FOG
6HR MIN TEMP:  68; 6HR MAX TEMP:  72;


$$
&&


USA.gov is the U.S. government's official web portal to all federal, state and local government web resources and services.